This is the latest recevied weather packets stored in our database for station/object KY4LEX. If no packets are shown the sender has not sent any weather packets the latest 10 day(s).
| Time | Temp. | Humidity | Pressure | Rain* | Wind** | Luminosity | Snow |
|---|---|---|---|---|---|---|---|
| 1777783632 | 5.56° C | 69% | 1024.5 hPa | 0 mm | - | 0 W/m² | - |
| 1777783330 | 5.56° C | 69% | 1024.6 hPa | 0 mm | - | 0 W/m² | - |
| 1777783026 | 5.56° C | 69% | 1024.5 hPa | 0 mm | - | 0 W/m² | - |
| 1777782724 | 5.56° C | 69% | 1024.4 hPa | 0 mm | - | 0 W/m² | - |
| 1777782419 | 6.11° C | 72% | 1024.4 hPa | 0 mm | - | 0 W/m² | - |
| 1777782116 | 6.11° C | 70% | 1024.4 hPa | 0 mm | - | 0 W/m² | - |
| 1777781812 | 5.56° C | 70% | 1024.3 hPa | 0 mm | - | 0 W/m² | - |
| 1777781510 | 6.11° C | 71% | 1024.2 hPa | 0 mm | - | 0 W/m² | - |
| 1777781208 | 6.11° C | 71% | 1024.2 hPa | 0 mm | - | 0 W/m² | - |
| 1777780905 | 6.11° C | 73% | 1024.2 hPa | 0 mm | - | 0 W/m² | - |
| 1777780601 | 6.11° C | 71% | 1024.2 hPa | 0 mm | - | 0 W/m² | - |
| 1777780299 | 5.56° C | 75% | 1024.3 hPa | 0 mm | - | 0 W/m² | - |
| 1777779996 | 5° C | 82% | 1024.3 hPa | 0 mm | - | 0 W/m² | - |
| 1777779693 | 5° C | 83% | 1024.3 hPa | 0 mm | - | 0 W/m² | - |
| 1777779390 | 5° C | 84% | 1024.4 hPa | 0 mm | - | 0 W/m² | - |
| 1777779088 | 5° C | 83% | 1024.1 hPa | 0 mm | - | 0 W/m² | - |
| 1777778786 | 5° C | 83% | 1024 hPa | 0 mm | - | 0 W/m² | - |
| 1777778485 | 5° C | 85% | 1023.9 hPa | 0 mm | - | 0 W/m² | - |
| 1777778182 | 5° C | 85% | 1024.2 hPa | 0 mm | - | 0 W/m² | - |
| 1777777879 | 5° C | 85% | 1024.2 hPa | 0 mm | - | 0 W/m² | - |
| 1777777575 | 5° C | 84% | 1024.2 hPa | 0 mm | - | 0 W/m² | - |
| 1777777272 | 5° C | 84% | 1024.1 hPa | 0 mm | - | 0 W/m² | - |
| 1777776969 | 5° C | 84% | 1024.2 hPa | 0 mm | - | 0 W/m² | - |
| 1777776667 | 5.56° C | 83% | 1023.9 hPa | 0 mm | - | 0 W/m² | - |
| 1777776363 | 5.56° C | 82% | 1024 hPa | 0 mm | - | 0 W/m² | - |
* Rain latest hour (hover to see other rain measurements)
** Current wind speed in m/s (hover to see current wind gust speed)